Stations météo

Publicité
Le Luc, France (7675): Température de l'air & dewpoint: 11.12.2017 22:00:00 - 17.12.2017 22:00:00 (CET)Le Luc, France (7675): Température de l'air 5cm: 11.12.2017 22:00:00 - 17.12.2017 22:00:00 (CET)Le Luc, France (7675): Vitesse du vent & gusts: 11.12.2017 22:00:00 - 17.12.2017 22:00:00 (CET)Le Luc, France (7675): Direction du vent: 11.12.2017 22:00:00 - 17.12.2017 22:00:00 (CET)Le Luc, France (7675): reduced air pressure: 11.12.2017 22:00:00 - 17.12.2017 22:00:00 (CET)Le Luc, France (7675): visibility: 11.12.2017 22:00:00 - 17.12.2017 22:00:00 (CET)Le Luc, France (7675): Ensoleillement: 11.12.2017 22:00:00 - 17.12.2017 22:00:00 (CET)Le Luc, France (7675): Quantités de précipitations: 11.12.2017 22:00:00 - 17.12.2017 22:00:00 (CET)
Date & Time tt [°C] td [°C] tt 5cm [°C] ff [km/h] ff [knt] fx [km/h] fx [knt] dd ppp [hPa] vv [km] sd [min] rr [mm]
17.12.2017 22:00:00 4,0 -4,7 2,4 5 3 23 12 - 1024,7 10 0 0,0
17.12.2017 21:00:00 5,4 -4,7 3,6 9 5 26 14 SW 1024,2 10 0 0,0
17.12.2017 20:00:00 6,2 -4,9 3,9 11 6 21 12 WSW 1023,5 10 0 0,0
17.12.2017 19:00:00 6,7 -4,7 5,3 11 6 38 21 WSW 1022,7 10 0 0,0
17.12.2017 18:00:00 7,8 -5,0 6,5 22 12 44 24 WNW 1021,5 10 0 0,0
17.12.2017 17:00:00 8,8 -4,1 7,8 24 13 56 30 WNW 1020,4 10 34 0,0
17.12.2017 16:00:00 10,2 -7,1 10,6 31 17 51 27 NW 1019,5 10 60 0,0
17.12.2017 15:00:00 10,8 -7,0 12,5 31 17 49 26 WNW 1018,9 10 60 0,0
17.12.2017 14:00:00 10,8 -7,5 12,7 31 17 47 26 NW 1019,0 10 60 0,0
17.12.2017 13:00:00 10,5 -6,4 12,1 28 15 48 26 WNW 1019,7 10 60 0,0
17.12.2017 12:00:00 10,0 -6,0 11,6 18 10 38 20 NW 1020,5 10 60 0,0
17.12.2017 11:00:00 8,3 -4,9 10,0 16 9 24 13 W 1021,0 10 60 0,0
17.12.2017 10:00:00 6,5 -4,3 6,9 10 6 19 10 WSW 1020,5 50 60 0,0
17.12.2017 09:00:00 5,3 -4,0 2,5 8 4 21 11 SSW 1019,8 10 33 0,0
17.12.2017 08:00:00 4,0 -3,8 2,2 9 5 19 10 S 1019,0 10 0 0,0
17.12.2017 07:00:00 4,0 -3,5 2,4 8 4 24 13 SSW 1018,5 10 0 0,0
17.12.2017 06:00:00 4,5 -3,3 2,6 9 5 20 11 SSW 1017,6 10 0 0,0
17.12.2017 05:00:00 4,6 -3,7 2,4 9 5 23 13 SW 1017,4 10 0 0,0
17.12.2017 04:00:00 4,2 -3,8 2,4 9 5 24 13 SW 1017,3 50 0 0,0
17.12.2017 03:00:00 4,6 -4,2 2,8 9 5 19 10 SW 1017,1 50 0 0,0
17.12.2017 02:00:00 4,9 -4,4 1,9 11 6 21 12 WSW 1016,4 10 0 0,0
17.12.2017 01:00:00 4,0 -4,2 2,6 8 4 29 16 SSW 1016,2 10 0 0,0
17.12.2017 00:00:00 5,5 -4,4 3,8 13 7 26 14 WSW 1015,9 10 0 0,0
16.12.2017 23:00:00 5,6 -4,3 4,1 10 5 28 15 SW 1015,4 50 0 0,0
16.12.2017 22:00:00 6,2 -5,2 4,9 16 9 34 19 WNW 1014,5 10 0 0,0
16.12.2017 21:00:00 6,8 -4,9 5,6 22 12 39 21 WNW 1013,8 50 0 0,0
16.12.2017 20:00:00 7,1 -5,0 6,0 22 12 49 26 WNW 1013,0 10 0 0,0
16.12.2017 19:00:00 7,7 -5,1 6,7 28 15 59 32 WNW 1011,8 50 0 0,0
16.12.2017 18:00:00 8,6 -4,9 7,6 35 19 57 31 WNW 1011,0 50 0 0,0
16.12.2017 17:00:00 9,3 -4,7 8,4 33 18 53 29 WNW 1010,3 50 33 0,0
16.12.2017 16:00:00 10,4 -4,4 10,9 33 18 57 31 NW 1009,1 50 60 0,0
16.12.2017 15:00:00 11,1 -4,2 12,7 35 19 52 28 WNW 1008,3 50 60 0,0
16.12.2017 14:00:00 11,3 -4,4 12,8 35 19 59 32 NW 1007,7 10 60 0,0
16.12.2017 13:00:00 11,0 -3,9 12,2 39 21 62 34 NW 1007,7 10 60 0,0
16.12.2017 12:00:00 10,5 -4,0 11,2 37 20 64 35 NW 1007,7 10 60 0,0
16.12.2017 11:00:00 9,1 -2,8 10,2 34 18 61 33 WNW 1007,9 47 60 0,0
16.12.2017 10:00:00 7,6 -1,4 8,5 27 15 47 26 W 1007,7 50 60 0,0
16.12.2017 09:00:00 6,4 -1,3 3,9 8 5 21 11 WNW 1007,2 50 34 0,0
16.12.2017 08:00:00 5,7 -1,2 4,3 15 8 47 26 W 1006,3 50 0 0,0
16.12.2017 07:00:00 5,9 -0,6 4,8 22 12 67 36 WNW 1004,9 10 0 0,0
16.12.2017 06:00:00 5,8 -0,3 4,9 35 19 68 37 W 1003,7 10 0 0,0
16.12.2017 05:00:00 5,8 -0,1 4,7 28 15 49 26 W 1003,9 10 0 0,0
16.12.2017 04:00:00 5,9 0,4 5,0 34 18 52 28 W 1004,1 10 0 0,0
16.12.2017 03:00:00 6,1 1,0 5,1 31 17 44 24 W 1004,4 10 0 0,0
16.12.2017 02:00:00 6,3 1,6 5,4 31 17 49 26 W 1003,8 10 0 0,0
16.12.2017 01:00:00 6,8 1,9 5,8 26 14 45 25 W 1003,5 10 0 0,0
16.12.2017 00:00:00 7,1 1,8 6,1 22 12 44 24 W 1003,4 10 0 0,0
15.12.2017 23:00:00 7,4 1,7 6,4 26 14 50 27 W 1003,3 10 0 0,0
15.12.2017 22:00:00 7,5 1,3 6,3 19 10 40 22 W 1003,4 50 0 0,0
15.12.2017 21:00:00 8,2 0,9 6,6 27 15 39 21 W 1003,1 50 0 0,0
15.12.2017 20:00:00 7,9 0,8 6,6 15 8 36 20 W 1003,0 10 0 0,0
15.12.2017 19:00:00 8,9 0,1 7,7 23 13 50 27 W 1002,4 50 0 0,0
15.12.2017 18:00:00 9,5 -0,4 8,2 31 17 47 25 W 1001,4 10 0 0,0
15.12.2017 17:00:00 10,1 -0,7 9,0 28 15 45 25 W 1001,2 10 18 0,0
15.12.2017 16:00:00 11,5 -1,3 11,4 25 14 43 23 W 1000,4 50 51 0,0
15.12.2017 15:00:00 11,6 0,7 11,3 24 13 46 25 W 1000,1 50 35 0,0
15.12.2017 14:00:00 11,0 1,2 11,3 28 15 49 26 W 1000,3 10 20 0,0
15.12.2017 13:00:00 10,6 2,4 10,3 18 10 41 22 W 1000,9 10 0 0,0
15.12.2017 12:00:00 10,2 3,2 10,3 18 10 27 14 WSW 1002,3 10 0 0,0
15.12.2017 11:00:00 10,4 3,2 10,4 16 9 27 15 W 1002,3 10 0 0,0
15.12.2017 10:00:00 10,4 4,7 10,0 16 8 41 22 W 1003,1 46 0 0,0
15.12.2017 09:00:00 10,3 6,4 6,6 15 8 22 12 W 1003,1 10 12 0,0
15.12.2017 08:00:00 10,0 6,5 8,4 9 5 27 15 W 1002,6 10 0 0,0
15.12.2017 07:00:00 11,1 6,8 9,9 21 11 31 17 W 1002,5 10 0 0,0
15.12.2017 06:00:00 11,5 6,4 10,3 10 5 41 22 W 1003,2 49 0 0,0
15.12.2017 05:00:00 12,7 6,3 10,3 24 13 39 21 W 1003,7 10 0 0,0
15.12.2017 04:00:00 11,5 7,4 10,3 15 8 28 15 W 1005,0 10 0 0,0
15.12.2017 03:00:00 12,6 6,4 9,5 24 13 48 26 W 1005,3 10 0 0,0
15.12.2017 02:00:00 10,6 7,7 9,0 16 9 25 13 W 1006,1 10 0 0,0
15.12.2017 01:00:00 9,9 7,8 7,5 15 8 18 10 WNW 1007,0 10 0 0,0
15.12.2017 00:00:00 9,4 7,3 7,5 8 4 16 9 WSW 1007,7 10 0 0,0
14.12.2017 23:00:00 10,0 7,4 8,2 5 3 12 6 W 1008,4 10 0 0,0
14.12.2017 22:00:00 10,4 7,6 9,3 11 6 20 11 WNW 1009,0 50 0 0,0
14.12.2017 21:00:00 10,7 7,6 8,5 15 8 21 12 WNW 1009,4 10 0 0,0
14.12.2017 20:00:00 10,3 6,8 8,7 13 7 22 12 W 1009,8 10 0 0,0
14.12.2017 19:00:00 9,9 6,4 8,6 13 7 17 9 WNW 1010,0 80 0 0,0
14.12.2017 18:00:00 11,2 6,1 9,4 9 5 25 14 W 1010,0 80 0 0,0
14.12.2017 17:00:00 12,6 6,4 11,4 16 9 35 19 W 1010,0 34 10 0,0
14.12.2017 16:00:00 13,5 6,6 13,6 18 10 38 21 W 1009,9 10 55 0,0
14.12.2017 15:00:00 13,9 7,6 15,8 23 12 43 23 WNW 1009,6 80 60 0,0
14.12.2017 14:00:00 13,9 7,2 15,7 23 12 38 20 W 1010,5 38 57 0,0
14.12.2017 13:00:00 12,4 7,7 12,8 13 7 39 21 W 1011,2 80 29 0,0
14.12.2017 12:00:00 12,0 7,5 11,6 21 11 39 21 W 1012,2 80 0 0,0
14.12.2017 11:00:00 10,8 7,5 10,0 16 9 37 20 W 1013,6 10 0 0,0
14.12.2017 10:00:00 10,1 6,8 9,3 21 11 32 17 WSW 1013,4 80 0 0,0
14.12.2017 09:00:00 10,1 6,8 6,2 13 7 26 14 WSW 1013,3 10 0 0,0
14.12.2017 08:00:00 7,4 5,4 6,2 5 3 8 5 - 1012,9 10 0 0,0
14.12.2017 07:00:00 7,9 5,7 6,3 4 2 14 8 - 1012,8 10 0 0,0
14.12.2017 06:00:00 7,8 5,6 6,7 8 4 19 11 W 1012,6 10 0 0,0
14.12.2017 05:00:00 7,3 4,9 6,5 13 7 27 14 W 1013,0 10 0 0,0
14.12.2017 04:00:00 7,1 4,7 6,5 18 10 29 15 W 1013,8 10 0 0,0
14.12.2017 03:00:00 7,0 4,3 6,5 21 11 27 15 W 1014,6 10 0 0,0
14.12.2017 02:00:00 6,8 4,1 6,1 15 8 22 12 WSW 1014,8 10 0 0,0
14.12.2017 01:00:00 6,6 3,7 6,0 13 7 21 12 SW 1015,7 10 0 0,0
14.12.2017 00:00:00 7,0 3,2 6,2 11 6 20 11 WSW 1016,6 10 0 0,0
13.12.2017 23:00:00 6,6 2,5 5,0 12 6 22 12 W 1016,7 42 0 0,0
13.12.2017 22:00:00 6,5 1,6 5,2 5 3 14 8 - 1017,1 10 0 0,0
13.12.2017 21:00:00 6,5 1,2 5,5 8 4 21 11 WNW 1017,5 10 0 0,0
13.12.2017 20:00:00 7,2 1,1 5,8 16 9 22 12 W 1018,1 10 0 0,0
13.12.2017 19:00:00 7,5 0,9 6,4 16 9 20 11 W 1018,0 50 0 0,0
13.12.2017 18:00:00 8,2 1,1 7,1 13 7 26 14 W 1018,3 10 0 0,0
13.12.2017 17:00:00 9,3 0,2 8,1 18 10 29 16 W 1018,5 10 33 0,0
13.12.2017 16:00:00 10,6 -0,6 11,8 20 11 46 25 W 1018,2 50 60 0,0
13.12.2017 15:00:00 11,1 -1,0 13,0 29 16 46 25 W 1018,5 10 60 0,0
13.12.2017 14:00:00 10,3 -0,8 10,3 20 11 44 24 W 1018,8 80 32 0,0
13.12.2017 13:00:00 10,6 -1,8 10,0 20 11 40 22 WNW 1018,9 49 21 0,0
13.12.2017 12:00:00 9,3 -1,7 10,7 14 8 36 19 W 1019,7 80 60 0,0
13.12.2017 11:00:00 7,7 -2,6 8,8 23 12 36 20 W 1020,4 80 60 0,0
13.12.2017 10:00:00 6,4 -2,8 6,3 18 10 39 21 WSW 1020,3 80 60 0,0
13.12.2017 09:00:00 5,7 -3,1 2,7 26 14 36 20 W 1019,6 80 36 0,0
13.12.2017 08:00:00 3,9 -3,2 2,8 23 13 45 25 W 1019,3 50 0 0,0
13.12.2017 07:00:00 4,0 -2,9 2,0 18 10 27 14 WSW 1019,1 10 0 0,0
13.12.2017 06:00:00 3,0 -2,1 1,8 13 7 26 14 WSW 1018,1 50 0 0,0
13.12.2017 05:00:00 2,9 -1,5 2,0 15 8 27 15 SW 1018,1 10 0 0,0
13.12.2017 04:00:00 3,9 -1,5 2,8 13 7 32 17 WSW 1018,5 10 0 0,0
13.12.2017 03:00:00 4,6 -1,0 3,3 18 10 30 16 W 1017,8 50 0 0,0
13.12.2017 02:00:00 4,8 0,0 3,5 13 7 29 15 SW 1017,5 10 0 0,0
13.12.2017 01:00:00 4,7 0,8 3,6 5 3 31 17 - 1016,9 10 0 0,0
13.12.2017 00:00:00 5,4 1,5 4,4 15 8 29 16 SW 1016,9 10 0 0,0
12.12.2017 23:00:00 5,7 2,5 4,5 18 10 31 17 W 1016,5 50 0 0,0
12.12.2017 22:00:00 6,3 3,3 5,2 19 10 32 17 WSW 1016,0 50 0 0,0
12.12.2017 21:00:00 6,4 4,1 4,8 16 9 26 14 WSW 1015,7 10 0 0,0
12.12.2017 20:00:00 6,1 4,3 4,6 8 4 12 6 SSW 1015,4 10 0 0,0
12.12.2017 19:00:00 7,2 4,5 4,6 8 4 16 9 W 1014,7 50 0 0,0
12.12.2017 18:00:00 8,0 5,1 6,1 4 2 20 11 - 1013,9 10 0 0,0
12.12.2017 17:00:00 9,7 5,7 8,7 10 5 22 12 W 1013,3 80 0 0,0
12.12.2017 16:00:00 11,0 4,7 10,6 18 10 29 15 W 1012,6 10 54 0,0
12.12.2017 15:00:00 10,8 5,3 11,0 10 6 22 12 WSW 1012,0 50 10 0,0
12.12.2017 14:00:00 10,6 5,4 11,4 13 7 28 15 W 1011,6 10 31 0,0
12.12.2017 13:00:00 9,8 5,6 10,3 11 6 23 12 W 1011,5 45 2 0,0
12.12.2017 12:00:00 9,5 5,9 9,3 13 7 19 10 W 1011,7 10 1 0,0
12.12.2017 11:00:00 8,6 5,0 8,4 5 3 16 9 - 1011,7 10 2 0,0
12.12.2017 10:00:00 7,4 4,7 6,7 5 3 18 10 WSW 1011,5 50 0 0,0
12.12.2017 09:00:00 6,4 4,7 3,3 4 2 11 6 - 1010,5 10 8 0,0
12.12.2017 08:00:00 5,5 3,8 3,5 8 4 21 11 - 1009,5 10 0 0,0
12.12.2017 07:00:00 6,7 4,7 5,0 15 8 21 11 WSW 1007,8 9 0 0,0
12.12.2017 06:00:00 6,0 4,8 4,9 13 7 23 12 WSW 1006,9 35 0 0,0
12.12.2017 05:00:00 5,7 5,0 3,4 7 4 16 9 SW 1006,1 26 0 0,0
12.12.2017 04:00:00 6,6 5,2 4,2 9 5 17 9 W 1005,7 10 0 0,0
12.12.2017 03:00:00 5,8 4,9 3,5 12 6 16 9 SW 1004,9 48 0 0,0
12.12.2017 02:00:00 6,2 5,0 5,0 9 5 13 7 WSW 1004,0 10 0 0,0
12.12.2017 01:00:00 6,4 5,3 4,7 8 4 10 5 WSW 1003,2 50 0 0,0
12.12.2017 00:00:00 7,3 5,8 6,1 5 3 16 8 SSW 1001,4 50 0 0,0
11.12.2017 23:00:00 8,3 6,3 7,2 9 5 22 12 SW 1000,1 50 0 0,0
11.12.2017 22:00:00 9,2 6,8 8,4 15 8 30 16 WSW 998,3 10 0 0,0

tt = Température de l'air
td = dewpoint
tt 5cm = Température de l'air 5cm
ff = Vitesse du vent
fx = gusts
dd = Direction du vent
ppp = reduced air pressure
vv = visibility
sd = Ensoleillement
rr = Quantités de précipitations

stations d'obs. à proximité